Location: Middlebury
(44.0153°N, 73.1678°W)
Time: 16:17:57
(UTC-05:00)

ISS - Visible Passes

Search period start: 20 November 2017 00:00
Search period end: 30 November 2017 00:00
Orbit: 402 x 407 km, 51.6° (Epoch: 21 November)

Date Brightness Start Highest point End Pass type
(mag) Time Alt. Az. Time Alt. Az. Time Alt. Az.
26 Nov -1.5 18:34:38 10° SW 18:35:49 20° SSW 18:35:49 20° SSW visible
27 Nov -2.4 17:42:51 10° SSW 17:45:33 24° SE 17:45:53 24° SE visible
28 Nov -1.6 16:51:42 10° SSE 16:53:24 13° SE 16:55:06 10° E visible
28 Nov -2.7 18:26:10 10° WSW 18:28:32 44° WSW 18:28:32 44° WSW visible
29 Nov -3.6 17:33:55 10° SW 17:37:07 54° SE 17:38:25 30° E visible
29 Nov -0.4 19:10:44 10° W 19:11:05 12° W 19:11:05 12° W visible
